Time,TemperatureF,DewpointF,PressureIn,WindDirection,WindDirectionDegrees,WindSpeedMPH,WindSpeedGustMPH,Humidity,HourlyPrecipIn,Conditions,Clouds,dailyrainin,SoftwareType,DateUTC
2012-07-18 00:14:00,55.8,28.0,29.96,NNE,18,2.0,2.0,35,0.00,,,0.00,weatherlink.com 1.10,2012-07-18 07:14:00,
2012-07-18 00:29:00,54.4,28.0,29.96,NNE,13,1.0,2.0,36,0.00,,,0.00,weatherlink.com 1.10,2012-07-18 07:29:00,
2012-07-18 00:44:00,54.0,27.0,29.97,NNE,15,1.0,1.0,36,0.00,,,0.00,weatherlink.com 1.10,2012-07-18 07:44:00,
2012-07-18 00:59:00,53.5,29.0,29.96,NNE,14,0.0,1.0,39,0.00,,,0.00,weatherlink.com 1.10,2012-07-18 07:59:00,
2012-07-18 01:14:00,55.2,29.0,29.96,North,1,2.0,2.0,37,0.00,,,0.00,weatherlink.com 1.10,2012-07-18 08:14:00,
2012-07-18 01:29:00,55.0,30.0,29.96,NNE,12,0.0,2.0,39,0.00,,,0.00,weatherlink.com 1.10,2012-07-18 08:29:00,
2012-07-18 01:44:00,55.7,31.0,29.95,NNE,12,2.0,3.0,39,0.00,,,0.00,weatherlink.com 1.10,2012-07-18 08:44:00,
2012-07-18 01:59:00,56.1,28.0,29.95,North,8,2.0,2.0,34,0.00,,,0.00,weatherlink.com 1.10,2012-07-18 08:59:00,
2012-07-18 02:14:00,54.7,29.0,29.94,NNE,18,2.0,2.0,38,0.00,,,0.00,weatherlink.com 1.10,2012-07-18 09:14:00,
2012-07-18 02:29:00,55.5,28.0,29.94,North,4,1.0,2.0,35,0.00,,,0.00,weatherlink.com 1.10,2012-07-18 09:29:00,
2012-07-18 02:44:00,57.2,27.0,29.94,NNE,23,3.0,4.0,31,0.00,,,0.00,weatherlink.com 1.10,2012-07-18 09:44:00,
2012-07-18 02:59:00,57.9,24.0,29.93,North,6,3.0,4.0,27,0.00,,,0.00,weatherlink.com 1.10,2012-07-18 09:59:00,
2012-07-18 03:14:00,57.6,24.0,29.92,NNW,343,1.0,3.0,27,0.00,,,0.00,weatherlink.com 1.10,2012-07-18 10:14:00,
2012-07-18 03:29:00,57.6,23.0,29.93,North,360,3.0,4.0,26,0.00,,,0.00,weatherlink.com 1.10,2012-07-18 10:29:00,
2012-07-18 03:44:00,57.5,24.0,29.93,NNE,18,2.0,3.0,27,0.00,,,0.00,weatherlink.com 1.10,2012-07-18 10:44:00,
2012-07-18 03:59:00,56.2,27.0,29.93,NNE,18,1.0,3.0,33,0.00,,,0.00,weatherlink.com 1.10,2012-07-18 10:59:00,
2012-07-18 04:14:00,54.3,26.0,29.93,NNE,20,0.0,2.0,33,0.00,,,0.00,weatherlink.com 1.10,2012-07-18 11:14:00,
2012-07-18 04:29:00,52.4,26.0,29.93,NNE,16,3.0,3.0,36,0.00,,,0.00,weatherlink.com 1.10,2012-07-18 11:29:00,
2012-07-18 04:44:00,55.8,24.0,29.93,North,11,1.0,2.0,29,0.00,,,0.00,weatherlink.com 1.10,2012-07-18 11:44:00,
2012-07-18 04:59:00,56.6,23.0,29.93,North,1,2.0,3.0,27,0.00,,,0.00,weatherlink.com 1.10,2012-07-18 11:59:00,
2012-07-18 05:14:00,57.5,23.0,29.93,North,356,0.0,3.0,26,0.00,,,0.00,weatherlink.com 1.10,2012-07-18 12:14:00,
2012-07-18 05:29:00,55.8,22.0,29.93,NNE,12,2.0,3.0,27,0.00,,,0.00,weatherlink.com 1.10,2012-07-18 12:29:00,
2012-07-18 05:44:00,57.4,22.0,29.93,NNE,14,2.0,3.0,25,0.00,,,0.00,weatherlink.com 1.10,2012-07-18 12:44:00,
2012-07-18 05:59:00,57.2,21.0,29.94,North,4,2.0,3.0,24,0.00,,,0.00,weatherlink.com 1.10,2012-07-18 12:59:00,
2012-07-18 06:15:00,56.7,23.0,29.93,North,360,2.0,3.0,27,0.00,,,0.00,weatherlink.com 1.10,2012-07-18 13:15:00,
2012-07-18 06:30:00,58.9,22.0,29.94,NNE,22,1.0,3.0,24,0.00,,,0.00,weatherlink.com 1.10,2012-07-18 13:30:00,
2012-07-18 06:45:00,56.3,26.0,29.94,NNE,14,2.0,3.0,31,0.00,,,0.00,weatherlink.com 1.10,2012-07-18 13:45:00,
2012-07-18 07:00:00,57.1,29.0,29.95,NNE,12,0.0,3.0,34,0.00,,,0.00,weatherlink.com 1.10,2012-07-18 14:00:00,
2012-07-18 07:15:00,57.0,30.0,29.95,NNE,13,0.0,2.0,36,0.00,,,0.00,weatherlink.com 1.10,2012-07-18 14:15:00,
2012-07-18 07:45:00,59.1,38.0,29.96,NNE,13,0.0,1.0,46,0.00,,,0.00,weatherlink.com 1.10,2012-07-18 14:45:00,
2012-07-18 08:00:00,59.1,38.0,29.96,NNE,18,2.0,2.0,46,0.00,,,0.00,weatherlink.com 1.10,2012-07-18 15:00:00,
2012-07-18 08:15:00,60.1,39.0,29.96,NNE,19,1.0,2.0,45,0.00,,,0.00,weatherlink.com 1.10,2012-07-18 15:15:00,
2012-07-18 08:30:00,61.4,40.0,29.96,NNE,15,1.0,1.0,45,0.00,,,0.00,weatherlink.com 1.10,2012-07-18 15:30:00,
2012-07-18 08:45:00,62.2,41.0,29.97,NNE,15,0.0,1.0,46,0.00,,,0.00,weatherlink.com 1.10,2012-07-18 15:45:00,
2012-07-18 09:00:00,65.4,34.0,29.96,NNE,12,0.0,1.0,31,0.00,,,0.00,weatherlink.com 1.10,2012-07-18 16:00:00,
2012-07-18 09:15:00,67.6,32.0,29.96,ENE,78,0.0,3.0,27,0.00,,,0.00,weatherlink.com 1.10,2012-07-18 16:15:00,
2012-07-18 09:30:00,68.8,31.0,29.97,NW,323,0.0,1.0,25,0.00,,,0.00,weatherlink.com 1.10,2012-07-18 16:30:00,
2012-07-18 09:45:00,69.5,30.0,29.97,NNE,25,0.0,2.0,23,0.00,,,0.00,weatherlink.com 1.10,2012-07-18 16:45:00,
2012-07-18 10:00:00,70.0,36.0,29.97,SE,124,0.0,1.0,29,0.00,,,0.00,weatherlink.com 1.10,2012-07-18 17:00:00,
2012-07-18 10:15:00,69.9,33.0,29.97,North,349,0.0,1.0,26,0.00,,,0.00,weatherlink.com 1.10,2012-07-18 17:15:00,
2012-07-18 10:30:00,71.3,36.0,29.97,NW,315,0.0,1.0,28,0.00,,,0.00,weatherlink.com 1.10,2012-07-18 17:30:00,
2012-07-18 10:45:00,71.8,39.0,29.98,SW,217,0.0,2.0,30,0.00,,,0.00,weatherlink.com 1.10,2012-07-18 17:45:00,
2012-07-18 11:00:00,71.8,37.0,29.97,SE,143,0.0,3.0,28,0.00,,,0.00,weatherlink.com 1.10,2012-07-18 18:00:00,
2012-07-18 11:15:00,73.5,41.0,29.97,SW,214,0.0,1.0,31,0.00,,,0.00,weatherlink.com 1.10,2012-07-18 18:15:00,
2012-07-18 11:30:00,75.7,40.0,29.97,SSW,211,0.0,2.0,28,0.00,,,0.00,weatherlink.com 1.10,2012-07-18 18:30:00,
2012-07-18 11:45:00,77.7,41.0,29.97,West,280,0.0,1.0,27,0.00,,,0.00,weatherlink.com 1.10,2012-07-18 18:45:00,
2012-07-18 12:00:00,77.9,40.0,29.97,SW,214,0.0,2.0,26,0.00,,,0.00,weatherlink.com 1.10,2012-07-18 19:00:00,
2012-07-18 12:15:00,77.5,38.0,29.97,NE,49,0.0,3.0,24,0.00,,,0.00,weatherlink.com 1.10,2012-07-18 19:15:00,
2012-07-18 12:30:00,75.7,37.0,29.97,NE,34,2.0,3.0,25,0.00,,,0.00,weatherlink.com 1.10,2012-07-18 19:30:00,
2012-07-18 12:45:00,76.0,38.0,29.96,West,277,2.0,3.0,25,0.00,,,0.00,weatherlink.com 1.10,2012-07-18 19:45:00,
2012-07-18 13:00:00,75.8,38.0,29.96,WNW,283,0.0,3.0,26,0.00,,,0.00,weatherlink.com 1.10,2012-07-18 20:00:00,
2012-07-18 13:15:00,78.2,35.0,29.96,ENE,67,2.0,3.0,21,0.00,,,0.00,weatherlink.com 1.10,2012-07-18 20:15:00,
2012-07-18 13:31:00,79.9,35.0,29.96,WNW,296,2.0,3.0,20,0.00,,,0.00,weatherlink.com 1.10,2012-07-18 20:31:00,
2012-07-18 13:45:00,80.6,35.0,29.96,SW,236,1.0,4.0,19,0.00,,,0.00,weatherlink.com 1.10,2012-07-18 20:45:00,
2012-07-18 14:01:00,79.2,32.0,29.96,North,1,2.0,4.0,18,0.00,,,0.00,weatherlink.com 1.10,2012-07-18 21:01:00,
2012-07-18 14:16:00,78.1,34.0,29.96,NW,314,0.0,5.0,20,0.00,,,0.00,weatherlink.com 1.10,2012-07-18 21:16:00,
2012-07-18 14:31:00,78.3,36.0,29.96,North,5,2.0,4.0,22,0.00,,,0.00,weatherlink.com 1.10,2012-07-18 21:31:00,
2012-07-18 14:46:00,79.3,37.0,29.96,NW,319,0.0,6.0,22,0.00,,,0.00,weatherlink.com 1.10,2012-07-18 21:46:00,
2012-07-18 15:16:00,81.5,34.0,29.95,WSW,240,5.0,5.0,18,0.00,,,0.00,weatherlink.com 1.10,2012-07-18 22:16:00,
2012-07-18 15:31:00,80.1,33.0,29.95,North,352,1.0,5.0,18,0.00,,,0.00,weatherlink.com 1.10,2012-07-18 22:31:00,
2012-07-18 16:01:00,77.2,38.0,29.94,SW,231,0.0,5.0,24,0.00,,,0.00,weatherlink.com 1.10,2012-07-18 23:01:00,
2012-07-18 16:16:00,76.2,38.0,29.94,NNE,23,0.0,8.0,25,0.00,,,0.00,weatherlink.com 1.10,2012-07-18 23:16:00,
2012-07-18 16:31:00,75.8,38.0,29.94,ESE,110,0.0,4.0,26,0.00,,,0.00,weatherlink.com 1.10,2012-07-18 23:31:00,
2012-07-18 17:01:00,74.5,42.0,29.93,East,89,0.0,4.0,31,0.00,,,0.00,weatherlink.com 1.10,2012-07-19 00:01:00,
2012-07-18 17:16:00,74.8,43.0,29.93,NW,304,3.0,3.0,32,0.00,,,0.00,weatherlink.com 1.10,2012-07-19 00:16:00,
2012-07-18 17:31:00,75.1,43.0,29.92,SW,215,0.0,2.0,32,0.00,,,0.00,weatherlink.com 1.10,2012-07-19 00:31:00,
2012-07-18 17:46:00,74.5,43.0,29.91,ESE,108,0.0,3.0,32,0.00,,,0.00,weatherlink.com 1.10,2012-07-19 00:46:00,
2012-07-18 18:01:00,73.9,43.0,29.91,ENE,71,2.0,4.0,33,0.00,,,0.00,weatherlink.com 1.10,2012-07-19 01:01:00,
2012-07-18 18:16:00,73.1,43.0,29.91,ENE,77,0.0,4.0,34,0.00,,,0.00,weatherlink.com 1.10,2012-07-19 01:16:00,
2012-07-18 18:24:00,-999.0,-99.9,0.00,North,-999,-999.0,-999.0,-999,0.00,,,0.00,weatherlink.com 1.10,2012-07-19 01:24:00,
2012-07-18 18:36:00,-999.0,-99.9,29.90,North,-999,-999.0,-999.0,-999,0.00,,,0.00,weatherlink.com 1.10,2012-07-19 01:36:00,
2012-07-18 18:51:00,70.3,42.0,29.91,NNW,329,0.0,4.0,36,0.00,,,0.00,weatherlink.com 1.10,2012-07-19 01:51:00,
2012-07-18 19:06:00,69.8,42.0,29.91,North,4,1.0,2.0,36,0.00,,,0.00,weatherlink.com 1.10,2012-07-19 02:06:00,
2012-07-18 19:21:00,69.2,41.0,29.91,ENE,58,0.0,4.0,36,0.00,,,0.00,weatherlink.com 1.10,2012-07-19 02:21:00,
2012-07-18 19:36:00,68.4,41.0,29.91,North,9,1.0,2.0,37,0.00,,,0.00,weatherlink.com 1.10,2012-07-19 02:36:00,
2012-07-18 20:06:00,66.2,40.0,29.91,North,6,0.0,2.0,39,0.00,,,0.00,weatherlink.com 1.10,2012-07-19 03:06:00,
2012-07-18 20:21:00,65.4,40.0,29.91,NNE,33,0.0,3.0,39,0.00,,,0.00,weatherlink.com 1.10,2012-07-19 03:21:00,
2012-07-18 20:36:00,63.9,41.0,29.92,NNE,20,0.0,2.0,44,0.00,,,0.00,weatherlink.com 1.10,2012-07-19 03:36:00,
2012-07-18 20:51:00,61.6,43.0,29.92,NE,36,1.0,2.0,51,0.00,,,0.00,weatherlink.com 1.10,2012-07-19 03:51:00,
2012-07-18 21:06:00,61.3,44.0,29.92,NNE,30,0.0,1.0,53,0.00,,,0.00,weatherlink.com 1.10,2012-07-19 04:06:00,
2012-07-18 21:21:00,61.6,44.0,29.93,NNE,30,0.0,1.0,53,0.00,,,0.00,weatherlink.com 1.10,2012-07-19 04:21:00,
2012-07-18 21:51:00,61.8,43.0,29.94,NNE,22,0.0,1.0,50,0.00,,,0.00,weatherlink.com 1.10,2012-07-19 04:51:00,
2012-07-18 22:06:00,62.2,44.0,29.94,NNE,22,1.0,1.0,51,0.00,,,0.00,weatherlink.com 1.10,2012-07-19 05:06:00,
2012-07-18 22:21:00,62.7,45.0,29.93,NNE,22,0.0,1.0,53,0.00,,,0.00,weatherlink.com 1.10,2012-07-19 05:21:00,
2012-07-18 22:36:00,62.2,45.0,29.94,NNE,20,1.0,2.0,53,0.00,,,0.00,weatherlink.com 1.10,2012-07-19 05:36:00,
2012-07-18 22:51:00,62.8,45.0,29.94,NNE,20,0.0,2.0,52,0.00,,,0.00,weatherlink.com 1.10,2012-07-19 05:51:00,
2012-07-18 23:06:00,62.8,44.0,29.93,NNE,18,0.0,2.0,50,0.00,,,0.00,weatherlink.com 1.10,2012-07-19 06:06:00,
2012-07-18 23:21:00,61.8,43.0,29.93,NNE,25,0.0,1.0,51,0.00,,,0.00,weatherlink.com 1.10,2012-07-19 06:21:00,
2012-07-18 23:36:00,64.3,42.0,29.93,NNE,18,1.0,2.0,45,0.00,,,0.00,weatherlink.com 1.10,2012-07-19 06:36:00,
2012-07-18 23:51:00,65.3,42.0,29.93,NNE,21,0.0,1.0,43,0.00,,,0.00,weatherlink.com 1.10,2012-07-19 06:51:00,